This demonstration page uses our WeatherBlox Daily Observations layout. Learn more.

Hourly Observations for November 8, 2018

Temp ( °F °C ) Dew Point ( °F °C ) Humidity (%) Winds ( mph kmh ) Pressure ( in mb ) Visibility ( mi km ) Precip ( " mm )
12:15 am 00:15 Cloudy with Light Snow 29 -1.5 29 -1.5 100 100 ENE 3 6 30.39 1029 1 1.609344 0.02 0.508
12:35 am 00:35 Cloudy with Light Snow 29 -1.6 29 -1.6 100 100 NE 6 9 30.39 1029 2 3.218688 0.05 1.27
12:55 am 00:55 Cloudy with Light Wintry Mix 29 -1.7 29 -1.7 100 100 NE 6 9 30.39 1029 4 6.437376 0.06 1.524
1:15 am 01:15 Cloudy with Light Snow 29 -1.6 29 -1.6 100 100 ENE 3 6 30.42 1030 7 11.265408 0 0
1:35 am 01:35 Cloudy with Light Snow 29 -1.6 29 -1.6 100 100 Calm 30.42 1030 3 4.828032 0 0
1:55 am 01:55 Cloudy with Light Snow 29 -1.6 29 -1.6 100 100 Calm 30.42 1030 3 4.828032 0.01 0.254
2:15 am 02:15 Cloudy with Light Snow 29 -1.6 29 -1.6 100 100 ENE 3 6 30.42 1030 5 8.04672 0.02 0.508
2:35 am 02:35 Cloudy with Light Snow 29 -1.6 29 -1.6 100 100 ENE 3 6 30.39 1029 1.5 2.414016 0.03 0.762
2:55 am 02:55 Cloudy with Light Snow 29 -1.6 29 -1.6 100 100 ENE 5 7 30.42 1030 1.5 2.414016 0.04 1.016
3:15 am 03:15 Cloudy with Light Snow 29 -1.6 29 -1.6 100 100 ENE 5 7 30.42 1030 1.5 2.414016 0 0
3:35 am 03:35 Cloudy with Snow 29 -1.7 29 -1.7 100 100 ENE 5 7 30.42 1030 1 1.609344 0.01 0.254
3:55 am 03:55 Cloudy with Snow 29 -1.8 29 -1.8 100 100 E 5 7 30.39 1029 0.75 1.207008 0.02 0.508
4:15 am 04:15 Cloudy with Snow 28 -2 28 -2 100 100 E 6 9 30.39 1029 0.5 0.804672 0.01 0.254
4:35 am 04:35 Cloudy with Snow 28 -2 28 -2 100 100 E 6 9 30.39 1029 0.75 1.207008 0.02 0.508
4:55 am 04:55 Cloudy with Heavy Snow 28 -2 28 -2 100 100 E 7 11 30.39 1029 0.5 0.804672 0.02 0.508
5:15 am 05:15 Cloudy with Snow 28 -2.1 28 -2.1 100 100 E 6 9 30.39 1029 0.75 1.207008 0.01 0.254
5:35 am 05:35 Cloudy with Snow 28 -2.1 28 -2.1 100 100 E 6 9 30.42 1030 0.5 0.804672 0.02 0.508
5:55 am 05:55 Cloudy with Snow 28 -2.3 28 -2.3 100 100 E 6 9 30.42 1030 0.5 0.804672 0.04 1.016
6:15 am 06:15 Cloudy with Snow 28 -2.3 28 -2.3 100 100 E 6 9 30.42 1030 0.75 1.207008 0.02 0.508
6:35 am 06:35 Cloudy with Light Snow 28 -2.4 28 -2.4 100 100 E 3 6 30.42 1030 2 3.218688 0.03 0.762
6:55 am 06:55 Cloudy with Light Snow 28 -2.5 28 -2.5 100 100 ESE 5 7 30.42 1030 2.5 4.02336 0.04 1.016
7:15 am 07:15 Cloudy with Light Snow 28 -2.5 28 -2.5 100 100 SE 5 7 30.42 1030 7 11.265408 0.01 0.254
7:35 am 07:35 Cloudy with Light Snow 28 -2.5 28 -2.5 100 100 ESE 3 6 30.42 1030 7 11.265408 0.02 0.508
7:55 am 07:55 Cloudy 28 -2.5 28 -2.5 100 100 ESE 3 6 30.42 1030 7 11.265408 0.02 0.508
8:15 am 08:15 Cloudy 28 -2.5 28 -2.5 100 100 ESE 3 6 30.42 1030 10 16.09344 0 0
8:35 am 08:35 Cloudy with Light Snow 28 -2.5 28 -2.5 100 100 SSE 6 9 30.42 1030 10 16.09344 0.01 0.254
8:55 am 08:55 Cloudy 28 -2.2 28 -2.2 100 100 SSE 3 6 30.42 1030 10 16.09344 0.02 0.508
9:15 am 09:15 Cloudy 28 -2.1 28 -2.2 99 99 SSE 3 6 30.42 1030 10 16.09344 0.02 0.508
9:35 am 09:35 Cloudy with Light Wintry Mix 28 -2 28 -2.2 99 99 SSE 5 7 30.42 1030 10 16.09344 0.04 1.016
9:55 am 09:55 Cloudy 28 -2 28 -2.3 98 98 SSE 5 7 30.42 1030 10 16.09344 0.04 1.016
10:15 am 10:15 Cloudy 29 -1.6 28 -2 97 97 SSE 3 6 30.42 1030 10 16.09344 0 0
10:35 am 10:35 Cloudy 29 -1.5 28 -2 96 96 SSE 6 9 30.42 1030 10 16.09344 0 0
10:55 am 10:55 Cloudy with Light Snow 29 -1.5 28 -2.1 96 96 SSE 6 9 30.42 1030 7 11.265408 0 0
11:15 am 11:15 Cloudy 30 -1.3 28 -2 95 95 SSE 6 9 30.42 1030 10 16.09344 0 0
11:35 am 11:35 Cloudy 30 -1.2 28 -2 94 94 SSE 5 7 30.42 1030 10 16.09344 0 0
11:55 am 11:55 Cloudy 30 -1 28 -2 93 93 SE 5 7 30.42 1030 10 16.09344 0 0
12:15 pm 12:15 Cloudy 30 -1 28 -2 93 93 SSE 6 9 30.36 1028 10 16.09344 0 0
12:35 pm 12:35 Cloudy 30 -1 28 -2 93 93 SE 5 7 30.36 1028 10 16.09344 0 0
12:55 pm 12:55 Cloudy 30 -1 28 -2 93 93 S 6 9 30.36 1028 10 16.09344 0 0
1:15 pm 13:15 Cloudy with Light Snow 30 -1 28 -2 93 93 S 3 6 30.36 1028 7 11.265408 0 0
1:35 pm 13:35 Cloudy 30 -1 28 -2.2 92 92 Calm 30.36 1028 10 16.09344 0 0
1:55 pm 13:55 Cloudy 30 -1 28 -2.2 92 92 Calm 30.36 1028 10 16.09344 0 0
2:15 pm 14:15 Cloudy 30 -1 28 -2.2 92 92 Calm 30.33 1027 10 16.09344 0 0
2:35 pm 14:35 Cloudy 30 -1.1 28 -2.5 90 90 Calm 30.33 1027 10 16.09344 0 0
2:55 pm 14:55 Cloudy 30 -1 28 -2.2 92 92 Calm 30.33 1027 10 16.09344 0 0
3:15 pm 15:15 Cloudy 31 -0.7 28 -2.2 90 90 Calm 30.33 1027 10 16.09344 0 0
3:35 pm 15:35 Cloudy 31 -0.8 28 -2.1 91 91 Calm 30.33 1027 10 16.09344 0 0
3:55 pm 15:55 Cloudy 31 -0.7 28 -2 91 91 SSW 3 6 30.33 1027 10 16.09344 0 0
4:15 pm 16:15 Cloudy 31 -0.7 28 -2 91 91 SSW 3 6 30.33 1027 10 16.09344 0 0
4:35 pm 16:35 Cloudy 31 -0.8 29 -1.8 93 93 Calm 30.33 1027 10 16.09344 0 0
4:55 pm 16:55 Cloudy 31 -0.8 29 -1.6 94 94 Calm 30.33 1027 10 16.09344 0 0
5:15 pm 17:15 Cloudy 31 -0.8 29 -1.6 94 94 Calm 30.33 1027 10 16.09344 0 0
5:35 pm 17:35 Cloudy 31 -0.8 29 -1.6 94 94 Calm 30.33 1027 10 16.09344 0 0
5:55 pm 17:55 Cloudy 31 -0.8 29 -1.7 94 94 WSW 3 6 30.36 1028 10 16.09344 0 0
6:15 pm 18:15 Cloudy 30 -0.9 29 -1.6 95 95 Calm 30.36 1028 10 16.09344 0 0
6:35 pm 18:35 Cloudy 30 -1 29 -1.7 95 95 W 5 7 30.36 1028 10 16.09344 0 0
6:55 pm 18:55 Cloudy 31 -0.8 29 -1.6 94 94 W 5 7 30.36 1028 10 16.09344 0 0
7:15 pm 19:15 Cloudy 30 -1 29 -1.5 96 96 W 5 7 30.36 1028 10 16.09344 0 0
7:35 pm 19:35 Cloudy 31 -0.8 30 -1.3 96 96 W 7 11 30.39 1029 7 11.265408 0 0
7:55 pm 19:55 Cloudy 31 -0.7 30 -1 98 98 NW 12 19 30.39 1029 10 16.09344 0 0
8:15 pm 20:15 Cloudy 29 -1.4 29 -1.5 99 99 N 12 19 30.42 1030 7 11.265408 0 0
8:35 pm 20:35 Cloudy 29 -1.7 28 -2 98 98 NNW 8 13 30.42 1030 10 16.09344 0 0
8:55 pm 20:55 Cloudy 28 -2 27 -3 93 93 N 13 20 30.45 1031 10 16.09344 0 0
9:15 pm 21:15 Cloudy 27 -3 25 -4 93 93 N 7 11 30.42 1030 10 16.09344 0 0
9:35 pm 21:35 Mostly Cloudy 24 -4.2 23 -5.1 94 94 N 7 11 30.45 1031 10 16.09344 0 0
9:55 pm 21:55 Partly Cloudy 23 -5.2 21 -5.9 95 95 N 8 13 30.45 1031 10 16.09344 0 0
10:15 pm 22:15 Clear 22 -5.6 21 -6.2 96 96 NNW 5 7 30.45 1031 10 16.09344 0 0
10:35 pm 22:35 Clear 18 -7.9 17 -8.2 98 98 NNW 3 6 30.48 1032 10 16.09344 0 0
10:55 pm 22:55 Clear 18 -7.8 18 -7.8 100 100 Calm 30.48 1032 10 16.09344 0 0
11:15 pm 23:15 Clear with Mist and Fog 16 -8.9 16 -9 99 99 Calm 30.48 1032 2.5 4.02336 0 0
11:35 pm 23:35 Mostly Cloudy with Freezing Fog 15 -9.2 15 -9.3 99 99 W 6 9 30.48 1032 0.5 0.804672 0 0
11:55 pm 23:55 Clear 18 -8 18 -8 100 100 SW 3 6 30.45 1031 7 11.265408 0 0

Powered by AerisWeather